Skip Page Navigation
NASA JPL Caltech
NASA Logo - Jet Propulsion Laboratory + View the NASA Portal
+ Center for Near-Earth Object Studies
JPL Home Earth Solar System Stars & Galaxies Technology
JPL Solar System Dynamics
BODIES ORBITS EPHEMERIDES TOOLS PHYSICAL DATA DISCOVERY FAQ SITE MAP
IMPORTANT: The SSD Announcement email list is now available. Major changes are coming in the near future, including possible hostname and/or URL changes. To be notified of such changes, subscribe to this email list.

Please visit this page for more details.


JPL Small-Body Database Browser
Search: [ help ]  
17319 (3078 T-1)
Classification: Main-belt Asteroid          SPK-ID: 2017319
Ephemeris | Orbit Diagram | Orbital Elements | Mission Design | Physical Parameters | Discovery Circumstances ]

[ show orbit diagram ]
Orbital Elements at Epoch 2459000.5 (2020-May-31.0) TDB
Reference: JPL 22 (heliocentric ecliptic J2000)
 Element Value Uncertainty (1-sigma)   Units 
e .2434045937607114 3.0256e-08  
a 2.285209129865812 6.2228e-09 au
q 1.728978729952555 6.8381e-08 au
i 4.048679103111221 4.1051e-06 deg
node 203.9804999364289 5.0566e-05 deg
peri 229.4051496792479 5.1276e-05 deg
M 169.9863880909524 8.9737e-06 deg
tp 2458404.702059250651
(2018-Oct-13.20205925)
3.0254e-05 TDB
period 1261.790788536567
3.45
5.1539e-06
1.411e-08
d
yr
n .2853087875348419 1.1654e-09 deg/d
Q 2.841439529779069 7.7374e-09 au
  Orbit Determination Parameters
   # obs. used (total)      1437  
   data-arc span      17841 days (48.85 yr)  
   first obs. used      1971-03-24  
   last obs. used      2020-01-27  
   planetary ephem.      DE431  
   SB-pert. ephem.      SB431-N16  
   condition code      0  
   norm. resid. RMS      .5056  
   source      ORB  
   producer      Otto Matic  
   solution date      2020-Feb-22 22:01:30  

Additional Information
 Earth MOID = .746951 au 
 Jupiter MOID = 2.45548 au 
 T_jup = 3.559 
[ show covariance matrix ]

Ephemeris | Orbit Diagram | Orbital Elements | Mission Design | Physical Parameters | Discovery Circumstances ]

Physical Parameter Table
Parameter Symbol Value Units Sigma Reference Notes
absolute magnitude H 15.1   n/a MPO473997  

17319 (3078 T-1)          Discovered 1971-Mar-26 by van Houten, C. J., van Houten-Groeneveld, I., Gehrels, T. at Palomar
Reference: 20000913/Numbers.arcLast Updated: 2004-04-19

Alternate Designations
 3078 T-1 = 1997 SD2 
Ephemeris | Orbit Diagram | Orbital Elements | Mission Design | Physical Parameters | Discovery Circumstances ]
ABOUT SSD CREDITS/AWARDS PRIVACY/COPYRIGHT GLOSSARY LINKS
FirstGov 2020-Apr-07 15:28 UT
(server date/time)  
NASA Home Page
Site Manager:   Ryan S. Park
Webmaster  Alan B. Chamberlin